| time (UTC) | temp C | wind direction | speed KPH | gust KPH | rain 1hr cm | rain 24hr cm | rain mn cm | humidity % | barometer mb |
| 20260504222004 | 17 | 45 | 17.7 | 20.9 | 0.00 | 0.00 | 0.00 | 34 | 1004.7 |
| 20260504221501 | 17 | 34 | 14.5 | 16.1 | 0.00 | 0.00 | 0.00 | 33 | 1005.1 |
| 20260504220958 | 17 | 55 | 14.5 | 16.1 | 0.00 | 0.00 | 0.00 | 33 | 1005.1 |
| 20260504220454 | 17 | 38 | 14.5 | 20.9 | 0.00 | 0.00 | 0.00 | 33 | 1005.2 |
| 20260504215951 | 17 | 29 | 17.7 | 20.9 | 0.00 | 0.00 | 0.00 | 33 | 1005.1 |
| 20260504215447 | 17 | 53 | 14.5 | 17.7 | 0.00 | 0.00 | 0.00 | 32 | 1005.1 |
| 20260504214944 | 17 | 57 | 12.9 | 22.5 | 0.00 | 0.00 | 0.00 | 32 | 1005.3 |
| 20260504214441 | 18 | 35 | 12.9 | 16.1 | 0.00 | 0.00 | 0.00 | 32 | 1005.1 |
| 20260504213937 | 18 | 46 | 14.5 | 20.9 | 0.00 | 0.00 | 0.00 | 32 | 1005.2 |
| 20260504213433 | 18 | 50 | 19.3 | 22.5 | 0.00 | 0.00 | 0.00 | 32 | 1005.1 |
| 20260504212931 | 18 | 39 | 14.5 | 20.9 | 0.00 | 0.00 | 0.00 | 32 | 1005.1 |
| 20260504212426 | 18 | 55 | 17.7 | 22.5 | 0.00 | 0.00 | 0.00 | 32 | 1005.4 |
| 20260504211925 | 18 | 50 | 17.7 | 24.1 | 0.00 | 0.00 | 0.00 | 31 | 1005.1 |
| 20260504211420 | 18 | 41 | 17.7 | 24.1 | 0.00 | 0.00 | 0.00 | 31 | 1004.9 |
| 20260504210918 | 18 | 47 | 20.9 | 25.7 | 0.00 | 0.00 | 0.00 | 31 | 1005.2 |
| 20260504210415 | 18 | 39 | 16.1 | 20.9 | 0.00 | 0.00 | 0.00 | 31 | 1004.8 |
| 20260504205912 | 18 | 35 | 16.1 | 17.7 | 0.00 | 0.00 | 0.00 | 31 | 1005.1 |
| 20260504205410 | 18 | 47 | 19.3 | 24.1 | 0.00 | 0.00 | 0.00 | 30 | 1004.8 |
| 20260504204908 | 18 | 29 | 17.7 | 20.9 | 0.00 | 0.00 | 0.00 | 30 | 1004.6 |
| 20260504204406 | 19 | 31 | 19.3 | 22.5 | 0.00 | 0.00 | 0.00 | 31 | 1004.6 |
| 20260504203905 | 19 | 37 | 16.1 | 20.9 | 0.00 | 0.00 | 0.00 | 30 | 1004.8 |
| 20260504203402 | 18 | 42 | 14.5 | 20.9 | 0.00 | 0.00 | 0.00 | 31 | 1004.9 |
| 20260504202857 | 20 | 39 | 14.5 | 16.1 | 0.00 | 0.00 | 0.00 | 30 | 1004.9 |
| 20260504202355 | 20 | 54 | 20.9 | 24.1 | 0.00 | 0.00 | 0.00 | 28 | 1004.7 |
| 20260504201851 | 20 | 50 | 16.1 | 17.7 | 0.00 | 0.00 | 0.00 | 29 | 1004.9 |
| 20260504201349 | 20 | 50 | 17.7 | 22.5 | 0.00 | 0.00 | 0.00 | 30 | 1005.1 |
| 20260504200846 | 20 | 45 | 16.1 | 20.9 | 0.00 | 0.00 | 0.00 | 30 | 1004.9 |
| 20260504200343 | 20 | 29 | 19.3 | 24.1 | 0.00 | 0.00 | 0.00 | 29 | 1004.7 |
| 20260504195839 | 20 | 32 | 33.8 | 40.2 | 0.00 | 0.00 | 0.00 | 30 | 1004.5 |
| 20260504195334 | 20 | 54 | 20.9 | 24.1 | 0.00 | 0.00 | 0.00 | 29 | 1004.6 |
| 20260504194832 | 20 | 29 | 20.9 | 27.4 | 0.00 | 0.00 | 0.00 | 28 | 1004.5 |
| 20260504194327 | 20 | 33 | 17.7 | 20.9 | 0.00 | 0.00 | 0.00 | 28 | 1004.9 |
| 20260504193823 | 20 | 44 | 20.9 | 24.1 | 0.00 | 0.00 | 0.00 | 29 | 1004.9 |
| 20260504193321 | 21 | 31 | 27.4 | 32.2 | 0.00 | 0.00 | 0.00 | 28 | 1004.7 |
| 20260504192820 | 21 | 38 | 14.5 | 22.5 | 0.00 | 0.00 | 0.00 | 30 | 1004.7 |
| 20260504192317 | 21 | 34 | 19.3 | 22.5 | 0.00 | 0.00 | 0.00 | 30 | 1005.1 |
| 20260504191816 | 21 | 31 | 20.9 | 25.7 | 0.00 | 0.00 | 0.00 | 29 | 1005.1 |
| 20260504191313 | 20 | 34 | 32.2 | 37.0 | 0.00 | 0.00 | 0.00 | 30 | 1004.8 |
| 20260504190808 | 20 | 32 | 16.1 | 20.9 | 0.00 | 0.00 | 0.00 | 31 | 1004.8 |
| 20260504190304 | 21 | 27 | 24.1 | 29.0 | 0.00 | 0.00 | 0.00 | 31 | 1004.8 |
| 20260504185801 | 20 | 36 | 25.7 | 32.2 | 0.00 | 0.00 | 0.00 | 31 | 1004.6 |
| 20260504185258 | 20 | 32 | 24.1 | 27.4 | 0.00 | 0.00 | 0.00 | 32 | 1004.8 |
| 20260504184754 | 21 | 32 | 24.1 | 32.2 | 0.00 | 0.00 | 0.00 | 31 | 1004.7 |
| 20260504184250 | 20 | 33 | 30.6 | 37.0 | 0.00 | 0.00 | 0.00 | 31 | 1004.7 |
| 20260504183746 | 20 | 47 | 11.3 | 14.5 | 0.00 | 0.00 | 0.00 | 30 | 1004.6 |
| 20260504183243 | 22 | 42 | 12.9 | 17.7 | 0.00 | 0.00 | 0.00 | 28 | 1004.8 |
| 20260504182741 | 22 | 40 | 8.0 | 11.3 | 0.00 | 0.00 | 0.00 | 27 | 1004.7 |
| 20260504182238 | 20 | 51 | 14.5 | 20.9 | 0.00 | 0.00 | 0.00 | 30 | 1004.5 |
| 20260504181736 | 20 | 33 | 19.3 | 25.7 | 0.00 | 0.00 | 0.00 | 30 | 1004.5 |
| 20260504181233 | 22 | 43 | 16.1 | 17.7 | 0.00 | 0.00 | 0.00 | 28 | 1004.4 |
| 20260504180732 | 21 | 36 | 11.3 | 14.5 | 0.00 | 0.00 | 0.00 | 26 | 1004.4 |
| 20260504180231 | 20 | 39 | 14.5 | 16.1 | 0.00 | 0.00 | 0.00 | 29 | 1004.4 |
| 20260504175728 | 20 | 32 | 20.9 | 25.7 | 0.00 | 0.00 | 0.00 | 28 | 1004.0 |
| 20260504175224 | 21 | 42 | 16.1 | 22.5 | 0.00 | 0.00 | 0.00 | 27 | 1004.1 |
| 20260504174722 | 25 | 37 | 3.2 | 8.0 | 0.00 | 0.00 | 0.00 | 21 | 1004.4 |
| 20260504174220 | 25 | 64 | 0.0 | 1.6 | 0.00 | 0.00 | 0.00 | 21 | 1003.9 |
| 20260504173716 | 24 | 224 | 0.0 | 3.2 | 0.00 | 0.00 | 0.00 | 21 | 1004.0 |
| 20260504173213 | 22 | 59 | 0.0 | 0.0 | 0.00 | 0.00 | 0.00 | 22 | 1004.0 |
| 20260504172709 | 22 | 33 | 1.6 | 3.2 | 0.00 | 0.00 | 0.00 | 22 | 1003.9 |
| 20260504172206 | 22 | 111 | 9.7 | 12.9 | 0.00 | 0.00 | 0.00 | 23 | 1004.0 |
| 20260504171703 | 22 | 51 | 11.3 | 20.9 | 0.00 | 0.00 | 0.00 | 23 | 1004.0 |
| 20260504171200 | 21 | 111 | 0.0 | 0.0 | 0.00 | 0.00 | 0.00 | 23 | 1003.9 |
| 20260504170656 | 21 | 124 | 4.8 | 9.7 | 0.00 | 0.00 | 0.00 | 24 | 1003.8 |
| 20260504170154 | 22 | 136 | 9.7 | 11.3 | 0.00 | 0.00 | 0.00 | 24 | 1003.9 |
| 20260504160112 | 22 | 31 | 1.6 | 4.8 | 0.00 | 0.00 | 0.00 | 22 | 1004.3 |
| 20260504151039 | 20 | 46 | 0.0 | 0.0 | 0.00 | 0.00 | 0.00 | 29 | 1004.3 |
| 20260504150536 | 19 | 10 | 0.0 | 1.6 | 0.00 | 0.00 | 0.00 | 28 | 1004.6 |
| 20260504141002 | 15 | 335 | 6.4 | 8.0 | 0.00 | 0.00 | 0.00 | 37 | 1004.9 |
| 20260504140459 | 14 | 312 | 8.0 | 9.7 | 0.00 | 0.00 | 0.00 | 38 | 1004.9 |
| 20260504130424 | 7 | 324 | 8.0 | 9.7 | 0.00 | 0.00 | 0.00 | 51 | 1005.2 |
| 20260504110311 | 2 | 221 | 3.2 | 3.2 | 0.00 | 0.00 | 0.00 | 66 | 1004.4 |
| 20260504100228 | 4 | 245 | 4.8 | 4.8 | 0.00 | 0.00 | 0.00 | 62 | 1004.7 |
| 20260504081622 | 8 | 202 | 8.0 | 9.7 | 0.00 | 0.00 | 0.00 | 53 | 1005.5 |
| 20260504081117 | 7 | 198 | 4.8 | 4.8 | 0.00 | 0.00 | 0.00 | 56 | 1005.9 |
| 20260504080614 | 8 | 204 | 4.8 | 4.8 | 0.00 | 0.00 | 0.00 | 57 | 1005.6 |
| 20260504080111 | 8 | 178 | 9.7 | 9.7 | 0.00 | 0.00 | 0.00 | 53 | 1005.6 |
| 20260504050427 | 8 | 55 | 4.8 | 4.8 | 0.00 | 0.00 | 0.00 | 56 | 1007.1 |
| 20260504045924 | 8 | 44 | 0.0 | 1.6 | 0.00 | 0.00 | 0.00 | 56 | 1007.2 |
| 20260504045420 | 8 | 46 | 0.0 | 0.0 | 0.00 | 0.00 | 0.00 | 56 | 1007.3 |
| 20260504044916 | 8 | 38 | 0.0 | 0.0 | 0.00 | 0.00 | 0.00 | 56 | 1007.0 |
| 20260504044414 | 9 | 49 | 1.6 | 1.6 | 0.00 | 0.00 | 0.00 | 55 | 1007.1 |
| 20260504043911 | 10 | 49 | 8.0 | 8.0 | 0.00 | 0.00 | 0.00 | 53 | 1007.5 |
| 20260504043408 | 9 | 54 | 9.7 | 11.3 | 0.00 | 0.00 | 0.00 | 54 | 1007.6 |
| 20260504042906 | 10 | 53 | 9.7 | 11.3 | 0.00 | 0.00 | 0.00 | 52 | 1007.6 |
| 20260504042402 | 10 | 57 | 11.3 | 11.3 | 0.00 | 0.00 | 0.00 | 53 | 1007.6 |
| 20260504041858 | 10 | 64 | 4.8 | 8.0 | 0.00 | 0.00 | 0.00 | 52 | 1007.3 |
| 20260504041354 | 10 | 67 | 6.4 | 8.0 | 0.00 | 0.00 | 0.00 | 51 | 1007.5 |
| 20260504040850 | 11 | 85 | 4.8 | 4.8 | 0.00 | 0.00 | 0.00 | 50 | 1007.9 |
| 20260504040348 | 10 | 80 | 4.8 | 8.0 | 0.00 | 0.00 | 0.00 | 51 | 1007.6 |
| 20260504035844 | 10 | 103 | 4.8 | 4.8 | 0.00 | 0.00 | 0.00 | 51 | 1007.8 |
| 20260504035342 | 10 | 92 | 6.4 | 8.0 | 0.00 | 0.00 | 0.00 | 50 | 1007.8 |
| 20260504034838 | 11 | 130 | 8.0 | 11.3 | 0.00 | 0.00 | 0.00 | 48 | 1007.9 |
| 20260504034336 | 11 | 70 | 0.0 | 1.6 | 0.00 | 0.00 | 0.00 | 49 | 1007.9 |
| 20260504033833 | 11 | 62 | 4.8 | 4.8 | 0.00 | 0.00 | 0.00 | 48 | 1007.9 |
| 20260504033331 | 11 | 67 | 4.8 | 4.8 | 0.00 | 0.00 | 0.00 | 49 | 1008.0 |
| 20260504032827 | 11 | 58 | 8.0 | 11.3 | 0.00 | 0.00 | 0.00 | 48 | 1008.0 |
| 20260504032324 | 12 | 56 | 6.4 | 8.0 | 0.00 | 0.00 | 0.00 | 47 | 1008.3 |
| 20260504031821 | 12 | 67 | 4.8 | 8.0 | 0.00 | 0.00 | 0.00 | 46 | 1008.0 |
| 20260504031319 | 11 | 73 | 3.2 | 4.8 | 0.00 | 0.00 | 0.00 | 47 | 1008.1 |
| 20260504030815 | 12 | 50 | 4.8 | 4.8 | 0.00 | 0.00 | 0.00 | 46 | 1008.1 |
| 20260504030312 | 13 | 45 | 6.4 | 9.7 | 0.00 | 0.00 | 0.00 | 45 | 1008.0 |
| 20260504025808 | 13 | 50 | 8.0 | 11.3 | 0.00 | 0.00 | 0.00 | 44 | 1008.0 |
| 20260504025305 | 13 | 26 | 8.0 | 9.7 | 0.00 | 0.00 | 0.00 | 43 | 1007.6 |
| 20260504024801 | 13 | 41 | 8.0 | 12.9 | 0.00 | 0.00 | 0.00 | 42 | 1007.7 |
| 20260504024258 | 14 | 37 | 8.0 | 11.3 | 0.00 | 0.00 | 0.00 | 41 | 1007.8 |
| 20260504023755 | 15 | 41 | 11.3 | 14.5 | 0.00 | 0.00 | 0.00 | 40 | 1007.8 |
| 20260504023252 | 15 | 27 | 12.9 | 17.7 | 0.00 | 0.00 | 0.00 | 37 | 1007.7 |
| 20260504022747 | 16 | 46 | 9.7 | 14.5 | 0.00 | 0.00 | 0.00 | 35 | 1007.8 |
| 20260504022244 | 15 | 23 | 25.7 | 33.8 | 0.00 | 0.00 | 0.00 | 33 | 1007.5 |
| 20260504021741 | 14 | 5 | 4.8 | 4.8 | 0.00 | 0.00 | 0.00 | 33 | 1007.5 |
| 20260504021238 | 14 | 358 | 6.4 | 9.7 | 0.00 | 0.00 | 0.00 | 33 | 1007.5 |
| 20260504020735 | 15 | 344 | 6.4 | 8.0 | 0.00 | 0.00 | 0.00 | 32 | 1007.3 |
| 20260504020232 | 17 | 349 | 3.2 | 3.2 | 0.00 | 0.00 | 0.00 | 30 | 1007.1 |
| 20260504015728 | 15 | 1 | 6.4 | 8.0 | 0.00 | 0.00 | 0.00 | 30 | 1007.1 |
| 20260504015224 | 16 | 343 | 4.8 | 4.8 | 0.00 | 0.00 | 0.00 | 30 | 1006.9 |
| 20260504014720 | 17 | 87 | 0.0 | 0.0 | 0.00 | 0.00 | 0.00 | 28 | 1006.8 |
| 20260504014217 | 18 | 83 | 1.6 | 3.2 | 0.00 | 0.00 | 0.00 | 28 | 1006.8 |
| 20260504013715 | 18 | 77 | 1.6 | 1.6 | 0.00 | 0.00 | 0.00 | 28 | 1006.8 |
| 20260504013212 | 18 | 79 | 1.6 | 1.6 | 0.00 | 0.00 | 0.00 | 27 | 1006.7 |
| 20260504012709 | 18 | 71 | 1.6 | 1.6 | 0.00 | 0.00 | 0.00 | 27 | 1006.7 |
| 20260504012207 | 18 | 106 | 0.0 | 1.6 | 0.00 | 0.00 | 0.00 | 27 | 1006.5 |
| 20260504011703 | 19 | 125 | 3.2 | 3.2 | 0.00 | 0.00 | 0.00 | 27 | 1006.7 |
| 20260504011200 | 19 | 101 | 1.6 | 3.2 | 0.00 | 0.00 | 0.00 | 26 | 1006.7 |
| 20260504010656 | 19 | 85 | 1.6 | 3.2 | 0.00 | 0.00 | 0.00 | 26 | 1006.9 |
| 20260504010151 | 19 | 109 | 4.8 | 4.8 | 0.00 | 0.00 | 0.00 | 26 | 1006.5 |
| 20260504005649 | 20 | 115 | 4.8 | 8.0 | 0.00 | 0.00 | 0.00 | 26 | 1006.4 |
| 20260504005145 | 20 | 115 | 4.8 | 4.8 | 0.00 | 0.00 | 0.00 | 25 | 1006.8 |
| 20260504004643 | 20 | 146 | 8.0 | 9.7 | 0.00 | 0.00 | 0.00 | 25 | 1006.8 |
| 20260504004140 | 20 | 157 | 9.7 | 11.3 | 0.00 | 0.00 | 0.00 | 25 | 1006.7 |
| 20260504003636 | 20 | 118 | 6.4 | 9.7 | 0.00 | 0.00 | 0.00 | 25 | 1006.8 |
| 20260504003133 | 21 | 143 | 14.5 | 17.7 | 0.00 | 0.00 | 0.00 | 25 | 1006.4 |
| 20260504002630 | 21 | 153 | 11.3 | 14.5 | 0.00 | 0.00 | 0.00 | 24 | 1006.9 |
| 20260504002128 | 20 | 181 | 9.7 | 11.3 | 0.00 | 0.00 | 0.00 | 24 | 1006.8 |
| 20260504001626 | 21 | 151 | 12.9 | 16.1 | 0.00 | 0.00 | 0.00 | 24 | 1006.9 |
| 20260504001121 | 20 | 144 | 11.3 | 12.9 | 0.00 | 0.00 | 0.00 | 24 | 1006.9 |
| 20260504000619 | 21 | 184 | 8.0 | 11.3 | 0.00 | 0.00 | 0.00 | 25 | 1007.1 |
| 20260504000116 | 21 | 138 | 11.3 | 14.5 | 0.00 | 0.00 | 0.00 | 24 | 1007.1 |
| 20260503235614 | 20 | 132 | 12.9 | 12.9 | 0.00 | 0.00 | 0.00 | 25 | 1007.1 |
| 20260503235110 | 20 | 190 | 3.2 | 3.2 | 0.00 | 0.00 | 0.00 | 25 | 1007.7 |
| 20260503234609 | 21 | 184 | 1.6 | 1.6 | 0.00 | 0.00 | 0.00 | 24 | 1007.5 |
| 20260503234106 | 21 | 209 | 3.2 | 3.2 | 0.00 | 0.00 | 0.00 | 24 | 1007.5 |
| 20260503233603 | 21 | 292 | 1.6 | 1.6 | 0.00 | 0.00 | 0.00 | 24 | 1007.3 |
| 20260503233058 | 21 | 194 | 3.2 | 3.2 | 0.00 | 0.00 | 0.00 | 24 | 1007.6 |
| 20260503232556 | 21 | 93 | 0.0 | 0.0 | 0.00 | 0.00 | 0.00 | 23 | 1007.6 |
| 20260503232053 | 21 | 138 | 0.0 | 0.0 | 0.00 | 0.00 | 0.00 | 24 | 1007.3 |
| 20260503231551 | 21 | 58 | 0.0 | 1.6 | 0.00 | 0.00 | 0.00 | 24 | 1007.3 |
| 20260503231047 | 21 | 129 | 16.1 | 17.7 | 0.00 | 0.00 | 0.00 | 23 | 1007.6 |
| 20260503230544 | 21 | 121 | 4.8 | 4.8 | 0.00 | 0.00 | 0.00 | 24 | 1007.6 |
| 20260503230041 | 21 | 51 | 0.0 | 0.0 | 0.00 | 0.00 | 0.00 | 24 | 1007.7 |
| 20260503225538 | 21 | 115 | 3.2 | 3.2 | 0.00 | 0.00 | 0.00 | 24 | 1007.7 |
| 20260503225033 | 21 | 194 | 3.2 | 3.2 | 0.00 | 0.00 | 0.00 | 23 | 1007.8 |
| 20260503224531 | 21 | 226 | 0.0 | 0.0 | 0.00 | 0.00 | 0.00 | 23 | 1007.8 |
| 20260503224028 | 21 | 116 | 0.0 | 0.0 | 0.00 | 0.00 | 0.00 | 24 | 1007.9 |
| 20260503223526 | 20 | 160 | 8.0 | 9.7 | 0.00 | 0.00 | 0.00 | 24 | 1007.8 |
| 20260503223021 | 21 | 173 | 1.6 | 4.8 | 0.00 | 0.00 | 0.00 | 24 | 1008.0 |
| 20260503222520 | 20 | 119 | 6.4 | 8.0 | 0.00 | 0.00 | 0.00 | 24 | 1007.9 |